Location: Bayshore Village Mobile Home Park
(26.6945°N, 81.8642°W)
Time: 00:43:00
(UTC+00:00)

Cosmos 1455 Rocket - Pass Details

Date: 17 June 2021
Orbit: 604 x 630 km, 82.5° (Epoch: 05 August)

Event Time Altitude Azimuth Distance (km) Brightness Sun altitude
Rises 03:00:28 0° 356° (N) 2,916 7.3 -28.5°
Reaches altitude 10° 03:02:42 10° 357° (N) 2,008 6.3 -28.8°
Enters shadow 03:05:28 38° 3° (N) 970 4.3 -29.2°
